ROMMA est une association bénévole à but non lucratif. Votre soutien est indispensable : ADHERER à ROMMA ou FAIRE un DON

Engins - (38, Isère)

Vercors (906 m)   Longitude: 05° 37' E   Latitude: 45° 11' N Station partenaire n°139
 

Détail journalier du     <<     >>

Température Precipitation Humidité Vent Dir Rafale Dir. rafale Ensol.
Heure (°C) (mm) (%) (km/h) (km/h) (min)
01:00 7.40913OSO6OSO0
02:00 7.20923NO8NNO0
03:00 7.30913SO10O0
04:00 6.20924SSO10SSO0
05:00 6.10926SSO16SSE0
06:00 5.40926SSO16SSO0
07:00 5.10929SSO23S0
08:00 6.40868SSO24SO0
09:00 6.708515SSO37SSE20
10:00 9.807812S26SSO60
11:00 12.707011S23S60
12:00 14.40733E15SSE60
13:00 15.90732ENE6NE60
14:00 16.10683ENE6ENE60
15:00 17.90522ENE6ENE60
16:00 19.10511NE5ENE60
17:00 16.50541NE5NE60
18:00 14.60542NNO5NE0
19:00 14.40692NO5NO0
20:00 15.70714SSO16S0
21:00 15.40715S18SSE0
22:00 15.607110SSO24S0
23:00 16.30709SSO27SSE0
minuit 15.90758SSO21SSE0

Graphique du 08-10-2019

 

Serveur OMMA